Location: Canet
(43.3261°N, 5.3723°E)
Time: 17:28:50
(UTC+00:00)

USA 229 - Pass Details

Date: 24 January 2021
Orbit: 964 x 1248 km, 63.4° (Epoch: 26 February)

Event Time Altitude Azimuth Distance (km) Brightness Sun altitude
Rises 18:32:33 0° 324° (NW) 3,960 7.1 -20.4°
Reaches altitude 10° 18:35:12 10° 326° (NW) 3,037 6.4 -20.9°
Maximum altitude 18:42:32 74° 52° (NE) 1,237 3.8 -22.2°
Enters shadow 18:47:29 24° 134° (SE) 2,273 5.0 -23.1°
